Location: Camps Bay
(33.9517°S, 18.3844°E)
Time: 22:58:16
(UTC+00:00)

SL-27 R/B - Pass Details

Date: 18 January 2020
Orbit: 420 x 472 km, 74.7° (Epoch: 18 February)

Event Time Altitude Azimuth Distance (km) Brightness Sun altitude
Exits shadow 01:48:18 21° 55° (NE) 1,015 4.2 -21.8°
Maximum altitude 01:49:10 24° 80° (E) 943 4.3 -21.7°
Drops below altitude 10° 01:51:56 10° 135° (SE) 1,538 6.3 -21.3°
Sets 01:54:15 0° 149° (SSE) 2,410 7.5 -20.9°
